Time,TemperatureF,DewpointF,PressureIn,WindDirection,WindDirectionDegrees,WindSpeedMPH,WindSpeedGustMPH,Humidity,HourlyPrecipIn,Conditions,Clouds,dailyrainin,SoftwareType,DateUTC
2013-03-30 00:00:00,58.0,46.7,30.28,West,264,0.0,0.0,66,0.00,,,0.00,VWS V14.01,2013-03-30 04:00:00,
2013-03-30 00:05:00,57.8,46.7,30.28,West,264,0.0,0.0,66,0.00,,,0.00,VWS V14.01,2013-03-30 04:05:00,
2013-03-30 00:10:00,57.7,47.0,30.28,West,264,0.0,0.0,67,0.00,,,0.00,VWS V14.01,2013-03-30 04:10:00,
2013-03-30 00:15:00,57.5,46.9,30.28,West,264,0.0,0.0,68,0.00,,,0.00,VWS V14.01,2013-03-30 04:15:00,
2013-03-30 00:20:00,57.5,47.3,30.28,West,264,0.0,0.0,69,0.00,,,0.00,VWS V14.01,2013-03-30 04:20:00,
2013-03-30 00:25:00,57.3,48.0,30.28,West,264,0.0,0.0,71,0.00,,,0.00,VWS V14.01,2013-03-30 04:25:00,
2013-03-30 00:30:00,57.1,48.0,30.28,West,264,0.0,0.0,71,0.00,,,0.00,VWS V14.01,2013-03-30 04:30:00,
2013-03-30 00:35:00,56.9,47.6,30.28,West,264,0.0,0.0,71,0.00,,,0.00,VWS V14.01,2013-03-30 04:35:00,
2013-03-30 00:40:00,56.8,47.5,30.28,West,264,0.0,0.0,71,0.00,,,0.00,VWS V14.01,2013-03-30 04:40:00,
2013-03-30 00:45:00,56.7,47.4,30.28,West,264,0.0,0.0,71,0.00,,,0.00,VWS V14.01,2013-03-30 04:45:00,
2013-03-30 00:50:00,56.6,47.6,30.28,West,264,0.0,0.0,72,0.00,,,0.00,VWS V14.01,2013-03-30 04:50:00,
2013-03-30 00:55:00,56.4,47.5,30.28,West,264,0.0,0.0,72,0.00,,,0.00,VWS V14.01,2013-03-30 04:55:00,
2013-03-30 01:00:00,56.3,47.5,30.28,West,264,0.0,0.0,72,0.00,,,0.00,VWS V14.01,2013-03-30 05:00:00,
2013-03-30 01:05:00,56.1,47.5,30.28,West,264,0.0,0.0,73,0.00,,,0.00,VWS V14.01,2013-03-30 05:05:00,
2013-03-30 01:10:00,55.9,47.4,30.28,West,264,0.0,0.0,73,0.00,,,0.00,VWS V14.01,2013-03-30 05:10:00,
2013-03-30 01:15:00,55.8,47.5,30.28,West,264,0.0,0.0,74,0.00,,,0.00,VWS V14.01,2013-03-30 05:15:00,
2013-03-30 01:20:00,55.7,47.5,30.28,West,264,0.0,0.0,74,0.00,,,0.00,VWS V14.01,2013-03-30 05:20:00,
2013-03-30 01:25:00,55.5,47.4,30.28,West,264,0.0,0.0,74,0.00,,,0.00,VWS V14.01,2013-03-30 05:25:00,
2013-03-30 01:30:00,55.4,47.4,30.28,West,264,0.0,0.0,74,0.00,,,0.00,VWS V14.01,2013-03-30 05:30:00,
2013-03-30 01:35:00,55.4,47.5,30.28,West,264,0.0,0.0,75,0.00,,,0.00,VWS V14.01,2013-03-30 05:35:00,
2013-03-30 01:40:00,55.2,47.5,30.28,West,264,0.0,0.0,75,0.00,,,0.00,VWS V14.01,2013-03-30 05:40:00,
2013-03-30 01:45:00,55.1,47.4,30.28,West,264,0.0,0.0,75,0.00,,,0.00,VWS V14.01,2013-03-30 05:45:00,
2013-03-30 01:50:00,55.0,47.3,30.28,West,264,0.0,0.0,75,0.00,,,0.00,VWS V14.01,2013-03-30 05:50:00,
2013-03-30 01:55:00,54.9,47.5,30.28,West,264,0.0,0.0,76,0.00,,,0.00,VWS V14.01,2013-03-30 05:55:00,
2013-03-30 02:00:00,54.8,47.6,30.28,West,264,0.0,0.0,76,0.00,,,0.00,VWS V14.01,2013-03-30 06:00:00,
2013-03-30 02:04:00,54.6,47.4,30.28,West,264,0.0,0.0,77,0.00,,,0.00,VWS V14.01,2013-03-30 06:04:00,
2013-03-30 02:09:00,54.5,47.4,30.28,West,264,0.0,0.0,77,0.00,,,0.00,VWS V14.01,2013-03-30 06:09:00,
2013-03-30 02:14:00,54.5,47.5,30.28,West,264,0.0,0.0,77,0.00,,,0.00,VWS V14.01,2013-03-30 06:14:00,
2013-03-30 02:19:00,54.4,47.5,30.28,West,264,0.0,0.0,77,0.00,,,0.00,VWS V14.01,2013-03-30 06:19:00,
2013-03-30 02:24:00,54.2,47.5,30.28,West,264,0.0,0.0,78,0.00,,,0.00,VWS V14.01,2013-03-30 06:24:00,
2013-03-30 02:29:00,54.0,47.2,30.28,West,264,0.0,0.0,78,0.00,,,0.00,VWS V14.01,2013-03-30 06:29:00,
2013-03-30 02:34:00,53.8,47.2,30.28,West,264,0.0,0.0,78,0.00,,,0.00,VWS V14.01,2013-03-30 06:34:00,
2013-03-30 02:39:00,53.8,47.3,30.28,West,264,0.0,0.0,79,0.00,,,0.00,VWS V14.01,2013-03-30 06:39:00,
2013-03-30 02:44:00,53.6,47.2,30.28,West,264,0.0,0.0,79,0.00,,,0.00,VWS V14.01,2013-03-30 06:44:00,
2013-03-30 02:49:00,53.5,47.2,30.27,West,264,0.0,0.0,79,0.00,,,0.00,VWS V14.01,2013-03-30 06:49:00,
2013-03-30 02:54:00,53.4,47.2,30.27,West,264,0.0,0.0,80,0.00,,,0.00,VWS V14.01,2013-03-30 06:54:00,
2013-03-30 02:59:00,53.3,47.3,30.27,West,264,0.0,0.0,80,0.00,,,0.00,VWS V14.01,2013-03-30 06:59:00,
2013-03-30 03:04:00,53.2,47.3,30.27,West,264,0.0,0.0,80,0.00,,,0.00,VWS V14.01,2013-03-30 07:04:00,
2013-03-30 03:09:00,53.1,47.2,30.27,West,264,0.0,0.0,80,0.00,,,0.00,VWS V14.01,2013-03-30 07:09:00,
2013-03-30 03:14:00,53.0,47.2,30.27,West,264,0.0,0.0,81,0.00,,,0.00,VWS V14.01,2013-03-30 07:14:00,
2013-03-30 03:19:00,52.9,47.1,30.27,West,264,0.0,0.0,81,0.00,,,0.00,VWS V14.01,2013-03-30 07:19:00,
2013-03-30 03:24:00,52.7,47.0,30.26,West,264,0.0,0.0,81,0.00,,,0.00,VWS V14.01,2013-03-30 07:24:00,
2013-03-30 03:29:00,52.7,47.1,30.26,West,264,0.0,0.0,81,0.00,,,0.00,VWS V14.01,2013-03-30 07:29:00,
2013-03-30 03:34:00,52.6,47.0,30.26,West,264,0.0,0.0,81,0.00,,,0.00,VWS V14.01,2013-03-30 07:34:00,
2013-03-30 03:39:00,52.4,46.9,30.26,West,264,0.0,0.0,82,0.00,,,0.00,VWS V14.01,2013-03-30 07:39:00,
2013-03-30 03:44:00,52.3,46.9,30.26,West,264,0.0,0.0,82,0.00,,,0.00,VWS V14.01,2013-03-30 07:44:00,
2013-03-30 03:49:00,52.1,46.9,30.26,West,264,0.0,0.0,82,0.00,,,0.00,VWS V14.01,2013-03-30 07:49:00,
2013-03-30 03:54:00,52.0,46.9,30.26,West,264,0.0,0.0,83,0.00,,,0.00,VWS V14.01,2013-03-30 07:54:00,
2013-03-30 03:59:00,52.0,47.1,30.26,West,264,0.0,0.0,83,0.00,,,0.00,VWS V14.01,2013-03-30 07:59:00,
2013-03-30 04:04:00,52.0,47.2,30.26,West,264,0.0,0.0,84,0.00,,,0.00,VWS V14.01,2013-03-30 08:04:00,
2013-03-30 04:09:00,51.9,47.3,30.26,West,264,0.0,0.0,84,0.00,,,0.00,VWS V14.01,2013-03-30 08:09:00,
2013-03-30 04:14:00,52.0,47.5,30.26,West,264,0.0,0.0,84,0.00,,,0.00,VWS V14.01,2013-03-30 08:14:00,
2013-03-30 04:19:00,51.9,47.4,30.26,West,264,0.0,0.0,85,0.00,,,0.00,VWS V14.01,2013-03-30 08:19:00,
2013-03-30 04:24:00,51.8,47.4,30.26,West,264,0.0,0.0,85,0.00,,,0.00,VWS V14.01,2013-03-30 08:24:00,
2013-03-30 04:29:00,51.7,47.5,30.26,West,264,0.0,0.0,86,0.00,,,0.00,VWS V14.01,2013-03-30 08:29:00,
2013-03-30 04:34:00,51.6,47.5,30.26,West,264,0.0,0.0,86,0.00,,,0.00,VWS V14.01,2013-03-30 08:34:00,
2013-03-30 04:39:00,51.5,47.5,30.26,West,264,0.0,0.0,86,0.00,,,0.00,VWS V14.01,2013-03-30 08:39:00,
2013-03-30 04:44:00,51.4,47.3,30.26,West,264,0.0,0.0,86,0.00,,,0.00,VWS V14.01,2013-03-30 08:44:00,
2013-03-30 04:49:00,51.3,47.2,30.26,West,264,0.0,0.0,86,0.00,,,0.00,VWS V14.01,2013-03-30 08:49:00,
2013-03-30 04:54:00,51.3,47.3,30.26,West,264,0.0,0.0,86,0.00,,,0.00,VWS V14.01,2013-03-30 08:54:00,
2013-03-30 04:59:00,51.2,47.3,30.25,West,264,0.0,0.0,86,0.00,,,0.00,VWS V14.01,2013-03-30 08:59:00,
2013-03-30 05:04:00,51.2,47.4,30.25,West,264,0.0,0.0,87,0.00,,,0.00,VWS V14.01,2013-03-30 09:04:00,
2013-03-30 05:09:00,51.2,47.3,30.26,West,264,0.0,0.0,86,0.00,,,0.00,VWS V14.01,2013-03-30 09:09:00,
2013-03-30 05:14:00,51.1,47.3,30.25,West,264,0.0,0.0,87,0.00,,,0.00,VWS V14.01,2013-03-30 09:14:00,
2013-03-30 05:19:00,51.1,47.2,30.25,West,264,0.0,0.0,86,0.00,,,0.00,VWS V14.01,2013-03-30 09:19:00,
2013-03-30 05:24:00,51.0,47.1,30.25,West,264,0.0,0.0,86,0.00,,,0.00,VWS V14.01,2013-03-30 09:24:00,
2013-03-30 05:29:00,50.9,47.0,30.25,West,264,0.0,0.0,86,0.00,,,0.00,VWS V14.01,2013-03-30 09:29:00,
2013-03-30 05:34:00,50.9,47.0,30.25,West,264,0.0,0.0,87,0.00,,,0.00,VWS V14.01,2013-03-30 09:34:00,
2013-03-30 05:39:00,50.9,47.1,30.25,West,264,0.0,0.0,87,0.00,,,0.00,VWS V14.01,2013-03-30 09:39:00,
2013-03-30 05:44:00,50.8,47.1,30.25,West,264,0.0,0.0,87,0.00,,,0.00,VWS V14.01,2013-03-30 09:44:00,
2013-03-30 05:49:00,50.7,47.2,30.25,West,264,0.0,0.0,88,0.00,,,0.00,VWS V14.01,2013-03-30 09:49:00,
2013-03-30 05:54:00,50.7,47.3,30.24,West,264,0.0,0.0,88,0.00,,,0.00,VWS V14.01,2013-03-30 09:54:00,
2013-03-30 05:59:00,50.7,47.2,30.24,West,264,0.0,0.0,88,0.00,,,0.00,VWS V14.01,2013-03-30 09:59:00,
2013-03-30 06:04:00,50.7,47.2,30.24,West,264,0.0,0.0,88,0.00,,,0.00,VWS V14.01,2013-03-30 10:04:00,
2013-03-30 06:09:00,50.6,47.0,30.24,West,264,0.0,0.0,87,0.00,,,0.00,VWS V14.01,2013-03-30 10:09:00,
2013-03-30 06:14:00,50.4,46.9,30.25,West,264,0.0,0.0,88,0.00,,,0.00,VWS V14.01,2013-03-30 10:14:00,
2013-03-30 06:19:00,50.5,47.1,30.25,West,264,0.0,0.0,88,0.00,,,0.00,VWS V14.01,2013-03-30 10:19:00,
2013-03-30 06:24:00,50.4,47.1,30.25,West,264,0.0,0.0,88,0.00,,,0.00,VWS V14.01,2013-03-30 10:24:00,
2013-03-30 06:29:00,50.4,47.2,30.25,West,264,0.0,0.0,89,0.00,,,0.00,VWS V14.01,2013-03-30 10:29:00,
2013-03-30 06:34:00,50.3,47.2,30.25,West,264,0.0,0.0,89,0.00,,,0.00,VWS V14.01,2013-03-30 10:34:00,
2013-03-30 06:39:00,50.2,47.2,30.25,West,264,0.0,0.0,89,0.00,,,0.00,VWS V14.01,2013-03-30 10:39:00,
2013-03-30 06:44:00,50.2,47.2,30.25,West,264,0.0,0.0,90,0.00,,,0.00,VWS V14.01,2013-03-30 10:44:00,
2013-03-30 06:49:00,50.2,47.2,30.25,West,264,0.0,0.0,89,0.00,,,0.00,VWS V14.01,2013-03-30 10:49:00,
2013-03-30 06:54:00,50.1,47.0,30.25,West,264,0.0,0.0,89,0.00,,,0.00,VWS V14.01,2013-03-30 10:54:00,
2013-03-30 06:59:00,50.1,47.2,30.26,West,264,0.0,0.0,90,0.00,,,0.00,VWS V14.01,2013-03-30 10:59:00,
2013-03-30 07:04:00,50.0,47.1,30.26,West,264,0.0,0.0,90,0.00,,,0.00,VWS V14.01,2013-03-30 11:04:00,
2013-03-30 07:09:00,50.0,47.2,30.26,West,264,0.0,0.0,90,0.00,,,0.00,VWS V14.01,2013-03-30 11:09:00,
2013-03-30 07:14:00,50.1,47.3,30.26,West,264,0.0,0.0,90,0.00,,,0.00,VWS V14.01,2013-03-30 11:14:00,
2013-03-30 07:19:00,49.9,47.1,30.26,West,264,0.0,0.0,90,0.00,,,0.00,VWS V14.01,2013-03-30 11:19:00,
2013-03-30 07:24:00,50.0,47.2,30.26,West,264,0.0,0.0,90,0.00,,,0.00,VWS V14.01,2013-03-30 11:24:00,
2013-03-30 07:29:00,50.0,47.2,30.27,West,264,0.0,0.0,90,0.00,,,0.00,VWS V14.01,2013-03-30 11:29:00,
2013-03-30 07:34:00,49.9,47.1,30.27,West,264,0.0,0.0,90,0.00,,,0.00,VWS V14.01,2013-03-30 11:34:00,
2013-03-30 07:39:00,49.9,47.2,30.27,West,264,0.0,0.0,90,0.00,,,0.00,VWS V14.01,2013-03-30 11:39:00,
2013-03-30 07:44:00,50.0,47.3,30.28,West,264,0.0,0.0,90,0.00,,,0.00,VWS V14.01,2013-03-30 11:44:00,
2013-03-30 07:49:00,50.0,47.3,30.28,West,264,0.0,0.0,90,0.00,,,0.00,VWS V14.01,2013-03-30 11:49:00,
2013-03-30 07:54:00,50.0,47.3,30.28,West,264,0.0,0.0,90,0.00,,,0.00,VWS V14.01,2013-03-30 11:54:00,
2013-03-30 07:59:00,50.3,47.7,30.28,West,264,0.0,0.0,91,0.00,,,0.00,VWS V14.01,2013-03-30 11:59:00,
2013-03-30 08:04:00,50.4,47.8,30.28,West,264,0.0,0.0,91,0.00,,,0.00,VWS V14.01,2013-03-30 12:04:00,
2013-03-30 08:09:00,50.5,47.9,30.28,West,264,0.0,0.0,91,0.00,,,0.00,VWS V14.01,2013-03-30 12:09:00,
2013-03-30 08:14:00,50.7,48.2,30.29,West,264,0.0,0.0,91,0.00,,,0.00,VWS V14.01,2013-03-30 12:14:00,
2013-03-30 08:19:00,51.0,48.6,30.29,West,264,0.0,0.0,91,0.00,,,0.00,VWS V14.01,2013-03-30 12:19:00,
2013-03-30 08:24:00,51.1,48.7,30.29,West,264,0.0,0.0,92,0.00,,,0.00,VWS V14.01,2013-03-30 12:24:00,
2013-03-30 08:29:00,51.5,49.1,30.29,West,264,0.0,0.0,92,0.00,,,0.00,VWS V14.01,2013-03-30 12:29:00,
2013-03-30 08:34:00,51.9,49.5,30.29,West,264,0.0,0.0,92,0.00,,,0.00,VWS V14.01,2013-03-30 12:34:00,
2013-03-30 08:39:00,52.3,49.9,30.29,West,264,0.0,0.0,92,0.00,,,0.00,VWS V14.01,2013-03-30 12:39:00,
2013-03-30 08:44:00,52.7,50.3,30.29,West,264,0.0,0.0,92,0.00,,,0.00,VWS V14.01,2013-03-30 12:44:00,
2013-03-30 08:49:00,53.2,50.7,30.29,West,264,0.0,0.0,91,0.00,,,0.00,VWS V14.01,2013-03-30 12:49:00,
2013-03-30 08:54:00,53.8,51.3,30.29,West,264,0.0,0.0,91,0.00,,,0.00,VWS V14.01,2013-03-30 12:54:00,
2013-03-30 08:59:00,54.6,52.1,30.29,West,264,0.0,0.0,91,0.00,,,0.00,VWS V14.01,2013-03-30 12:59:00,
2013-03-30 09:04:00,55.2,52.6,30.29,West,264,0.0,0.0,91,0.00,,,0.00,VWS V14.01,2013-03-30 13:04:00,
2013-03-30 09:09:00,55.8,52.9,30.29,West,264,0.0,0.0,90,0.00,,,0.00,VWS V14.01,2013-03-30 13:09:00,
2013-03-30 09:14:00,56.6,53.3,30.29,West,264,0.0,0.0,89,0.00,,,0.00,VWS V14.01,2013-03-30 13:14:00,
2013-03-30 09:19:00,57.3,53.4,30.30,West,264,0.0,0.0,87,0.00,,,0.00,VWS V14.01,2013-03-30 13:19:00,
2013-03-30 09:24:00,57.6,53.0,30.30,West,264,0.0,0.0,85,0.00,,,0.00,VWS V14.01,2013-03-30 13:24:00,
2013-03-30 09:29:00,58.5,53.4,30.30,West,264,0.0,0.0,83,0.00,,,0.00,VWS V14.01,2013-03-30 13:29:00,
2013-03-30 09:34:00,59.4,53.7,30.30,West,264,0.0,0.0,82,0.00,,,0.00,VWS V14.01,2013-03-30 13:34:00,
2013-03-30 09:39:00,60.5,54.1,30.30,West,264,0.0,0.0,79,0.00,,,0.00,VWS V14.01,2013-03-30 13:39:00,
2013-03-30 09:44:00,61.2,54.3,30.30,West,264,0.0,0.0,78,0.00,,,0.00,VWS V14.01,2013-03-30 13:44:00,
2013-03-30 09:49:00,62.2,54.5,30.30,West,264,0.0,0.0,76,0.00,,,0.00,VWS V14.01,2013-03-30 13:49:00,
2013-03-30 09:54:00,62.7,54.4,30.30,West,264,0.0,0.0,74,0.00,,,0.00,VWS V14.01,2013-03-30 13:54:00,
2013-03-30 09:59:00,63.9,54.6,30.30,West,264,0.0,0.0,72,0.00,,,0.00,VWS V14.01,2013-03-30 13:59:00,
2013-03-30 10:04:00,64.8,54.8,30.30,West,264,0.0,0.0,70,0.00,,,0.00,VWS V14.01,2013-03-30 14:04:00,
2013-03-30 10:09:00,65.1,54.2,30.30,West,264,0.0,0.0,68,0.00,,,0.00,VWS V14.01,2013-03-30 14:09:00,
2013-03-30 10:14:00,65.9,54.7,30.30,South,188,0.0,0.0,67,0.00,,,0.00,VWS V14.01,2013-03-30 14:14:00,
2013-03-30 10:19:00,66.1,54.5,30.30,South,188,0.0,0.0,66,0.00,,,0.00,VWS V14.01,2013-03-30 14:19:00,
2013-03-30 10:24:00,67.0,54.7,30.30,South,188,0.0,0.0,64,0.00,,,0.00,VWS V14.01,2013-03-30 14:24:00,
2013-03-30 10:29:00,67.8,55.4,30.30,South,188,0.0,0.0,64,0.00,,,0.00,VWS V14.01,2013-03-30 14:29:00,
2013-03-30 10:34:00,68.0,55.5,30.29,South,188,0.0,0.0,64,0.00,,,0.00,VWS V14.01,2013-03-30 14:34:00,
2013-03-30 10:39:00,68.5,55.5,30.29,SE,124,0.0,0.0,63,0.00,,,0.00,VWS V14.01,2013-03-30 14:39:00,
2013-03-30 10:44:00,68.7,55.2,30.29,SE,124,0.0,0.0,62,0.00,,,0.00,VWS V14.01,2013-03-30 14:44:00,
2013-03-30 10:49:00,69.3,55.5,30.29,SE,124,0.0,0.0,62,0.00,,,0.00,VWS V14.01,2013-03-30 14:49:00,
2013-03-30 10:54:00,69.6,55.2,30.29,SSE,152,0.0,2.0,60,0.00,,,0.00,VWS V14.01,2013-03-30 14:54:00,
2013-03-30 10:59:00,70.1,55.8,30.29,SSE,152,0.0,0.0,60,0.00,,,0.00,VWS V14.01,2013-03-30 14:59:00,
2013-03-30 11:04:00,70.4,55.5,30.29,SSW,205,0.0,0.0,59,0.00,,,0.00,VWS V14.01,2013-03-30 15:04:00,
2013-03-30 11:09:00,70.8,55.4,30.29,South,183,0.0,0.0,58,0.00,,,0.00,VWS V14.01,2013-03-30 15:09:00,
2013-03-30 11:14:00,71.3,55.5,30.28,South,183,0.0,0.0,58,0.00,,,0.00,VWS V14.01,2013-03-30 15:14:00,
2013-03-30 11:19:00,71.5,55.8,30.28,South,183,0.0,0.0,58,0.00,,,0.00,VWS V14.01,2013-03-30 15:19:00,
2013-03-30 11:24:00,72.0,55.8,30.28,South,183,0.0,0.0,57,0.00,,,0.00,VWS V14.01,2013-03-30 15:24:00,
2013-03-30 11:29:00,72.6,55.4,30.28,South,183,0.0,0.0,55,0.00,,,0.00,VWS V14.01,2013-03-30 15:29:00,
2013-03-30 11:34:00,72.6,55.4,30.28,SSE,150,0.0,3.3,55,0.00,,,0.00,VWS V14.01,2013-03-30 15:34:00,
2013-03-30 11:39:00,73.0,54.9,30.28,SSE,150,0.0,0.0,53,0.00,,,0.00,VWS V14.01,2013-03-30 15:39:00,
2013-03-30 11:44:00,73.1,54.5,30.28,SSW,195,0.0,4.7,52,0.00,,,0.00,VWS V14.01,2013-03-30 15:44:00,
2013-03-30 11:49:00,73.2,54.2,30.28,South,169,0.0,4.3,51,0.00,,,0.00,VWS V14.01,2013-03-30 15:49:00,
2013-03-30 11:54:00,73.5,54.7,30.28,SSW,193,3.2,3.2,52,0.00,,,0.00,VWS V14.01,2013-03-30 15:54:00,
2013-03-30 11:59:00,73.8,54.8,30.27,SSW,193,0.0,0.0,51,0.00,,,0.00,VWS V14.01,2013-03-30 15:59:00,
2013-03-30 12:04:00,73.9,55.0,30.27,South,186,0.0,4.5,52,0.00,,,0.00,VWS V14.01,2013-03-30 16:04:00,
2013-03-30 12:09:00,74.3,55.8,30.27,South,186,0.0,0.0,52,0.00,,,0.00,VWS V14.01,2013-03-30 16:09:00,
2013-03-30 12:14:00,74.7,56.5,30.27,South,186,0.0,0.0,53,0.00,,,0.00,VWS V14.01,2013-03-30 16:14:00,
2013-03-30 12:19:00,75.1,55.7,30.27,South,186,0.0,0.0,51,0.00,,,0.00,VWS V14.01,2013-03-30 16:19:00,
2013-03-30 12:24:00,75.1,56.0,30.26,South,186,0.0,0.0,52,0.00,,,0.00,VWS V14.01,2013-03-30 16:24:00,
2013-03-30 12:29:00,75.3,55.9,30.26,South,186,0.0,0.0,51,0.00,,,0.00,VWS V14.01,2013-03-30 16:29:00,
2013-03-30 12:34:00,75.4,55.5,30.26,South,186,0.0,0.0,50,0.00,,,0.00,VWS V14.01,2013-03-30 16:34:00,
2013-03-30 12:39:00,75.3,55.1,30.26,South,186,0.0,0.0,50,0.00,,,0.00,VWS V14.01,2013-03-30 16:39:00,
2013-03-30 12:44:00,75.6,55.7,30.26,South,186,0.0,0.0,50,0.00,,,0.00,VWS V14.01,2013-03-30 16:44:00,
2013-03-30 12:49:00,76.3,54.9,30.26,South,186,0.0,0.0,48,0.00,,,0.00,VWS V14.01,2013-03-30 16:49:00,
2013-03-30 12:54:00,76.6,53.5,30.26,South,186,0.0,0.0,45,0.00,,,0.00,VWS V14.01,2013-03-30 16:54:00,
2013-03-30 12:59:00,76.7,53.5,30.25,SSE,153,0.0,4.2,44,0.00,,,0.00,VWS V14.01,2013-03-30 16:59:00,
2013-03-30 13:04:00,76.3,52.6,30.25,SSW,202,4.5,4.5,44,0.00,,,0.00,VWS V14.01,2013-03-30 17:04:00,
2013-03-30 13:09:00,76.7,52.7,30.25,SSE,165,0.0,1.6,43,0.00,,,0.00,VWS V14.01,2013-03-30 17:09:00,
2013-03-30 13:14:00,77.2,53.0,30.24,SSE,165,0.0,0.0,43,0.00,,,0.00,VWS V14.01,2013-03-30 17:14:00,
2013-03-30 13:19:00,77.9,53.2,30.24,SSE,165,0.0,0.0,42,0.00,,,0.00,VWS V14.01,2013-03-30 17:19:00,
2013-03-30 13:24:00,78.5,53.7,30.24,SSE,165,0.0,0.0,42,0.00,,,0.00,VWS V14.01,2013-03-30 17:24:00,
2013-03-30 13:29:00,78.7,53.0,30.24,SSE,165,0.0,0.0,41,0.00,,,0.00,VWS V14.01,2013-03-30 17:29:00,
2013-03-30 13:34:00,78.5,53.7,30.23,SW,221,0.0,0.0,42,0.00,,,0.00,VWS V14.01,2013-03-30 17:34:00,
2013-03-30 13:39:00,79.2,54.2,30.23,SW,221,0.0,0.0,42,0.00,,,0.00,VWS V14.01,2013-03-30 17:39:00,
2013-03-30 13:44:00,79.5,52.9,30.23,WNW,288,0.0,6.8,40,0.00,,,0.00,VWS V14.01,2013-03-30 17:44:00,
2013-03-30 13:49:00,79.2,54.2,30.23,SSW,200,0.0,0.0,42,0.00,,,0.00,VWS V14.01,2013-03-30 17:49:00,
2013-03-30 13:54:00,79.1,53.7,30.23,SSW,200,0.0,0.0,42,0.00,,,0.00,VWS V14.01,2013-03-30 17:54:00,
2013-03-30 13:59:00,79.2,53.7,30.22,SSW,200,0.0,0.0,41,0.00,,,0.00,VWS V14.01,2013-03-30 17:59:00,
2013-03-30 14:04:00,79.1,54.3,30.22,SSW,200,0.0,0.0,42,0.00,,,0.00,VWS V14.01,2013-03-30 18:04:00,
2013-03-30 14:09:00,79.5,54.0,30.21,SSW,200,0.0,0.0,41,0.00,,,0.00,VWS V14.01,2013-03-30 18:09:00,
2013-03-30 14:14:00,79.9,53.0,30.22,SSW,200,0.0,0.0,39,0.00,,,0.00,VWS V14.01,2013-03-30 18:14:00,
2013-03-30 14:19:00,80.2,52.1,30.21,SSW,200,0.0,0.0,38,0.00,,,0.00,VWS V14.01,2013-03-30 18:19:00,
2013-03-30 14:24:00,80.2,52.0,30.21,NW,312,0.0,6.3,38,0.00,,,0.00,VWS V14.01,2013-03-30 18:24:00,
2013-03-30 14:29:00,80.5,50.5,30.21,NW,312,0.0,2.6,35,0.00,,,0.00,VWS V14.01,2013-03-30 18:29:00,
2013-03-30 14:34:00,80.3,51.5,30.20,NW,312,0.0,0.0,37,0.00,,,0.00,VWS V14.01,2013-03-30 18:34:00,
2013-03-30 14:39:00,80.8,51.5,30.20,NW,312,0.0,0.0,36,0.00,,,0.00,VWS V14.01,2013-03-30 18:39:00,
2013-03-30 14:44:00,81.5,51.2,30.20,WSW,255,0.0,0.0,35,0.00,,,0.00,VWS V14.01,2013-03-30 18:44:00,
2013-03-30 14:49:00,82.0,51.9,30.20,WSW,255,0.0,0.0,35,0.00,,,0.00,VWS V14.01,2013-03-30 18:49:00,
2013-03-30 14:54:00,81.8,50.3,30.19,WSW,255,0.0,0.0,34,0.00,,,0.00,VWS V14.01,2013-03-30 18:54:00,
2013-03-30 14:58:00,81.9,51.4,30.19,WNW,283,0.0,0.0,35,0.00,,,0.00,VWS V14.01,2013-03-30 18:58:00,
2013-03-30 15:03:00,82.2,49.6,30.19,SSW,204,0.0,0.0,32,0.00,,,0.00,VWS V14.01,2013-03-30 19:03:00,
2013-03-30 15:08:00,82.1,49.4,30.19,SSE,165,0.0,4.5,32,0.00,,,0.00,VWS V14.01,2013-03-30 19:08:00,
2013-03-30 15:13:00,81.4,51.2,30.18,WSW,248,3.4,6.3,35,0.00,,,0.00,VWS V14.01,2013-03-30 19:13:00,
2013-03-30 15:18:00,81.6,51.0,30.18,SSE,167,0.0,3.3,35,0.00,,,0.00,VWS V14.01,2013-03-30 19:18:00,
2013-03-30 15:23:00,81.9,51.1,30.18,SSE,167,0.0,0.0,34,0.00,,,0.00,VWS V14.01,2013-03-30 19:23:00,
2013-03-30 15:28:00,82.2,51.5,30.18,SSE,167,0.0,0.0,35,0.00,,,0.00,VWS V14.01,2013-03-30 19:28:00,
2013-03-30 15:33:00,82.8,51.4,30.18,SW,219,0.0,0.0,34,0.00,,,0.00,VWS V14.01,2013-03-30 19:33:00,
2013-03-30 15:38:00,83.0,51.1,30.17,WSW,256,0.0,0.0,33,0.00,,,0.00,VWS V14.01,2013-03-30 19:38:00,
2013-03-30 15:43:00,82.7,52.0,30.17,WSW,256,0.0,0.0,35,0.00,,,0.00,VWS V14.01,2013-03-30 19:43:00,
2013-03-30 15:48:00,82.3,50.5,30.17,WSW,256,0.0,0.0,33,0.00,,,0.00,VWS V14.01,2013-03-30 19:48:00,
2013-03-30 15:53:00,81.3,50.4,30.16,WSW,256,0.0,0.0,34,0.00,,,0.00,VWS V14.01,2013-03-30 19:53:00,
2013-03-30 15:58:00,81.0,51.5,30.16,WSW,256,0.0,0.0,36,0.00,,,0.00,VWS V14.01,2013-03-30 19:58:00,
2013-03-30 16:03:00,81.0,51.0,30.16,WSW,256,0.0,0.0,35,0.00,,,0.00,VWS V14.01,2013-03-30 20:03:00,
2013-03-30 16:08:00,81.3,50.8,30.16,WSW,256,0.0,0.0,35,0.00,,,0.00,VWS V14.01,2013-03-30 20:08:00,
2013-03-30 16:13:00,81.4,51.2,30.15,WSW,256,0.0,0.0,35,0.00,,,0.00,VWS V14.01,2013-03-30 20:13:00,
2013-03-30 16:18:00,81.4,52.1,30.15,WSW,256,0.0,0.0,36,0.00,,,0.00,VWS V14.01,2013-03-30 20:18:00,
2013-03-30 16:23:00,81.2,50.7,30.15,WSW,256,0.0,0.0,35,0.00,,,0.00,VWS V14.01,2013-03-30 20:23:00,
2013-03-30 16:28:00,81.2,51.8,30.15,WSW,256,0.0,0.0,36,0.00,,,0.00,VWS V14.01,2013-03-30 20:28:00,
2013-03-30 16:33:00,81.4,51.5,30.15,SSE,148,0.0,0.0,35,0.00,,,0.00,VWS V14.01,2013-03-30 20:33:00,
2013-03-30 16:38:00,81.3,52.0,30.15,SSE,148,0.0,0.0,36,0.00,,,0.00,VWS V14.01,2013-03-30 20:38:00,
2013-03-30 16:43:00,81.5,51.8,30.15,SSE,148,0.0,0.0,36,0.00,,,0.00,VWS V14.01,2013-03-30 20:43:00,
2013-03-30 16:48:00,81.7,51.3,30.14,SSE,148,0.0,0.0,35,0.00,,,0.00,VWS V14.01,2013-03-30 20:48:00,
2013-03-30 16:53:00,81.8,51.8,30.14,SSE,148,0.0,0.0,35,0.00,,,0.00,VWS V14.01,2013-03-30 20:53:00,
2013-03-30 16:58:00,82.2,52.5,30.14,SSE,148,0.0,0.0,36,0.00,,,0.00,VWS V14.01,2013-03-30 20:58:00,
2013-03-30 17:03:00,81.9,51.6,30.14,South,179,0.0,0.0,35,0.00,,,0.00,VWS V14.01,2013-03-30 21:03:00,
2013-03-30 17:08:00,81.7,51.3,30.14,South,179,0.0,0.0,35,0.00,,,0.00,VWS V14.01,2013-03-30 21:08:00,
2013-03-30 17:13:00,81.4,51.4,30.14,South,179,0.0,0.0,35,0.00,,,0.00,VWS V14.01,2013-03-30 21:13:00,
2013-03-30 17:18:00,80.7,52.0,30.14,South,179,0.0,0.0,37,0.00,,,0.00,VWS V14.01,2013-03-30 21:18:00,
2013-03-30 17:23:00,80.4,52.1,30.14,South,179,0.0,0.0,37,0.00,,,0.00,VWS V14.01,2013-03-30 21:23:00,
2013-03-30 17:28:00,80.7,52.5,30.14,South,179,0.0,0.0,38,0.00,,,0.00,VWS V14.01,2013-03-30 21:28:00,
2013-03-30 17:34:00,81.3,52.9,30.13,South,179,0.0,0.0,37,0.00,,,0.00,VWS V14.01,2013-03-30 21:34:00,
2013-03-30 17:39:00,81.4,51.7,30.13,South,179,4.4,4.4,36,0.00,,,0.00,VWS V14.01,2013-03-30 21:39:00,
2013-03-30 17:44:00,81.7,52.0,30.13,South,179,0.0,0.0,36,0.00,,,0.00,VWS V14.01,2013-03-30 21:44:00,
2013-03-30 17:49:00,81.5,52.2,30.13,SE,141,0.0,6.3,36,0.00,,,0.00,VWS V14.01,2013-03-30 21:49:00,
2013-03-30 17:54:00,81.1,52.0,30.13,SE,141,0.0,0.0,36,0.00,,,0.00,VWS V14.01,2013-03-30 21:54:00,
2013-03-30 17:59:00,80.7,51.8,30.13,SE,141,0.0,2.2,37,0.00,,,0.00,VWS V14.01,2013-03-30 21:59:00,
2013-03-30 18:03:00,80.2,51.7,30.13,NW,309,0.0,0.0,37,0.00,,,0.00,VWS V14.01,2013-03-30 22:03:00,
2013-03-30 18:09:00,80.0,51.8,30.13,WSW,239,0.0,0.0,38,0.00,,,0.00,VWS V14.01,2013-03-30 22:09:00,
2013-03-30 18:14:00,79.8,51.8,30.13,WSW,239,0.0,0.0,38,0.00,,,0.00,VWS V14.01,2013-03-30 22:14:00,
2013-03-30 18:18:00,79.7,51.9,30.13,WSW,239,0.0,0.0,38,0.00,,,0.00,VWS V14.01,2013-03-30 22:18:00,
2013-03-30 18:23:00,79.8,52.3,30.14,WSW,239,0.0,0.0,38,0.00,,,0.00,VWS V14.01,2013-03-30 22:23:00,
2013-03-30 18:28:00,79.5,51.8,30.14,WSW,239,0.0,0.0,38,0.00,,,0.00,VWS V14.01,2013-03-30 22:28:00,
2013-03-30 18:33:00,79.1,52.0,30.14,WSW,239,0.0,0.0,39,0.00,,,0.00,VWS V14.01,2013-03-30 22:33:00,
2013-03-30 18:38:00,79.0,52.0,30.14,WSW,239,0.0,0.0,39,0.00,,,0.00,VWS V14.01,2013-03-30 22:38:00,
2013-03-30 18:43:00,78.7,52.0,30.14,WSW,239,0.0,0.0,39,0.00,,,0.00,VWS V14.01,2013-03-30 22:43:00,
2013-03-30 18:48:00,78.5,52.1,30.14,WSW,239,0.0,0.0,40,0.00,,,0.00,VWS V14.01,2013-03-30 22:48:00,
2013-03-30 18:53:00,78.3,52.1,30.14,WSW,239,0.0,0.0,40,0.00,,,0.00,VWS V14.01,2013-03-30 22:53:00,
2013-03-30 18:58:00,78.1,52.7,30.14,WSW,239,0.0,0.0,41,0.00,,,0.00,VWS V14.01,2013-03-30 22:58:00,
2013-03-30 19:03:00,78.0,52.6,30.14,WSW,239,0.0,0.0,41,0.00,,,0.00,VWS V14.01,2013-03-30 23:03:00,
2013-03-30 19:08:00,77.7,52.7,30.14,WSW,239,0.0,0.0,42,0.00,,,0.00,VWS V14.01,2013-03-30 23:08:00,
2013-03-30 19:13:00,77.5,53.1,30.14,WSW,239,0.0,0.0,43,0.00,,,0.00,VWS V14.01,2013-03-30 23:13:00,
2013-03-30 19:18:00,77.2,53.3,30.14,WSW,239,0.0,0.0,44,0.00,,,0.00,VWS V14.01,2013-03-30 23:18:00,
2013-03-30 19:23:00,77.1,53.2,30.14,WSW,239,0.0,0.0,43,0.00,,,0.00,VWS V14.01,2013-03-30 23:23:00,
2013-03-30 19:28:00,76.9,53.2,30.14,WSW,239,0.0,0.0,44,0.00,,,0.00,VWS V14.01,2013-03-30 23:28:00,
2013-03-30 19:33:00,76.7,53.2,30.14,WSW,239,0.0,0.0,44,0.00,,,0.00,VWS V14.01,2013-03-30 23:33:00,
2013-03-30 19:38:00,76.4,53.2,30.14,WSW,239,0.0,0.0,44,0.00,,,0.00,VWS V14.01,2013-03-30 23:38:00,
2013-03-30 19:43:00,76.4,53.4,30.14,WSW,239,0.0,0.0,45,0.00,,,0.00,VWS V14.01,2013-03-30 23:43:00,
2013-03-30 19:48:00,76.2,53.6,30.14,WSW,239,0.0,0.0,46,0.00,,,0.00,VWS V14.01,2013-03-30 23:48:00,
2013-03-30 19:53:00,75.8,53.4,30.15,WSW,239,0.0,0.0,46,0.00,,,0.00,VWS V14.01,2013-03-30 23:53:00,
2013-03-30 19:58:00,75.6,54.8,30.15,SSE,153,0.0,0.0,48,0.00,,,0.00,VWS V14.01,2013-03-30 23:58:00,
2013-03-30 20:03:00,75.2,56.4,30.15,SSE,153,0.0,0.0,52,0.00,,,0.00,VWS V14.01,2013-03-31 00:03:00,
2013-03-30 20:08:00,74.7,57.0,30.15,SSE,153,0.0,0.0,54,0.00,,,0.00,VWS V14.01,2013-03-31 00:08:00,
2013-03-30 20:13:00,74.2,57.0,30.15,SSE,153,0.0,0.0,55,0.00,,,0.00,VWS V14.01,2013-03-31 00:13:00,
2013-03-30 20:18:00,73.9,57.1,30.16,SSE,153,0.0,0.0,56,0.00,,,0.00,VWS V14.01,2013-03-31 00:18:00,
2013-03-30 20:23:00,73.6,57.2,30.16,SSE,153,0.0,0.0,57,0.00,,,0.00,VWS V14.01,2013-03-31 00:23:00,
2013-03-30 20:28:00,73.5,57.3,30.16,SSE,153,0.0,0.0,57,0.00,,,0.00,VWS V14.01,2013-03-31 00:28:00,
2013-03-30 20:33:00,72.9,57.1,30.16,SSE,153,0.0,0.0,58,0.00,,,0.00,VWS V14.01,2013-03-31 00:33:00,
2013-03-30 20:38:00,72.6,56.9,30.16,SSE,153,0.0,0.0,58,0.00,,,0.00,VWS V14.01,2013-03-31 00:38:00,
2013-03-30 20:43:00,72.3,57.0,30.17,SSE,153,0.0,0.0,59,0.00,,,0.00,VWS V14.01,2013-03-31 00:43:00,
2013-03-30 20:48:00,72.2,57.1,30.18,SSE,153,0.0,0.0,59,0.00,,,0.00,VWS V14.01,2013-03-31 00:48:00,
2013-03-30 20:53:00,71.9,56.9,30.19,SSE,153,0.0,0.0,59,0.00,,,0.00,VWS V14.01,2013-03-31 00:53:00,
2013-03-30 20:58:00,71.8,56.9,30.19,SSE,153,0.0,0.0,59,0.00,,,0.00,VWS V14.01,2013-03-31 00:58:00,
2013-03-30 21:03:00,71.4,56.5,30.19,SSE,153,0.0,0.0,59,0.00,,,0.00,VWS V14.01,2013-03-31 01:03:00,
2013-03-30 21:08:00,71.2,56.5,30.19,SSE,153,0.0,0.0,60,0.00,,,0.00,VWS V14.01,2013-03-31 01:08:00,
2013-03-30 21:13:00,71.0,56.4,30.19,SSE,153,0.0,0.0,60,0.00,,,0.00,VWS V14.01,2013-03-31 01:13:00,
2013-03-30 21:18:00,70.7,56.3,30.19,SSE,153,0.0,0.0,60,0.00,,,0.00,VWS V14.01,2013-03-31 01:18:00,
2013-03-30 21:23:00,70.7,56.5,30.20,SSE,153,0.0,0.0,61,0.00,,,0.00,VWS V14.01,2013-03-31 01:23:00,
2013-03-30 21:28:00,70.4,56.5,30.19,SSE,153,0.0,0.0,62,0.00,,,0.00,VWS V14.01,2013-03-31 01:28:00,
2013-03-30 21:33:00,70.2,56.3,30.19,SSE,153,0.0,0.0,61,0.00,,,0.00,VWS V14.01,2013-03-31 01:33:00,
2013-03-30 21:38:00,70.1,56.3,30.20,SSE,153,0.0,0.0,62,0.00,,,0.00,VWS V14.01,2013-03-31 01:38:00,
2013-03-30 21:43:00,69.8,56.0,30.20,SSE,153,0.0,0.0,62,0.00,,,0.00,VWS V14.01,2013-03-31 01:43:00,
2013-03-30 21:48:00,69.7,56.2,30.20,SSE,153,0.0,0.0,62,0.00,,,0.00,VWS V14.01,2013-03-31 01:48:00,
2013-03-30 21:53:00,69.6,56.2,30.20,SSE,153,0.0,0.0,62,0.00,,,0.00,VWS V14.01,2013-03-31 01:53:00,
2013-03-30 21:58:00,69.5,56.2,30.20,SSE,153,0.0,0.0,63,0.00,,,0.00,VWS V14.01,2013-03-31 01:58:00,
2013-03-30 22:03:00,69.2,56.2,30.20,SSE,153,0.0,0.0,63,0.00,,,0.00,VWS V14.01,2013-03-31 02:03:00,
2013-03-30 22:08:00,68.8,56.0,30.20,SSE,153,0.0,0.0,64,0.00,,,0.00,VWS V14.01,2013-03-31 02:08:00,
2013-03-30 22:13:00,68.7,56.0,30.20,SSE,153,0.0,0.0,64,0.00,,,0.00,VWS V14.01,2013-03-31 02:13:00,
2013-03-30 22:18:00,68.5,55.9,30.20,SSE,153,0.0,0.0,64,0.00,,,0.00,VWS V14.01,2013-03-31 02:18:00,
2013-03-30 22:23:00,68.4,55.9,30.21,SSE,153,0.0,0.0,64,0.00,,,0.00,VWS V14.01,2013-03-31 02:23:00,
2013-03-30 22:28:00,68.3,55.9,30.21,SSE,153,0.0,0.0,65,0.00,,,0.00,VWS V14.01,2013-03-31 02:28:00,
2013-03-30 22:33:00,67.4,55.2,30.21,SSE,153,0.0,0.0,65,0.00,,,0.00,VWS V14.01,2013-03-31 02:33:00,
2013-03-30 22:38:00,67.5,55.3,30.21,SSE,153,0.0,0.0,65,0.00,,,0.00,VWS V14.01,2013-03-31 02:38:00,
2013-03-30 22:43:00,67.3,54.6,30.21,SSE,153,0.0,0.0,64,0.00,,,0.00,VWS V14.01,2013-03-31 02:43:00,
2013-03-30 22:48:00,67.3,54.6,30.21,SSE,153,0.0,0.0,64,0.00,,,0.00,VWS V14.01,2013-03-31 02:48:00,
2013-03-30 22:53:00,67.1,54.5,30.21,SSE,153,0.0,0.0,64,0.00,,,0.00,VWS V14.01,2013-03-31 02:53:00,
2013-03-30 22:58:00,66.6,53.8,30.21,SSE,153,0.0,0.0,63,0.00,,,0.00,VWS V14.01,2013-03-31 02:58:00,
2013-03-30 23:03:00,66.5,53.6,30.21,SSE,153,0.0,0.0,63,0.00,,,0.00,VWS V14.01,2013-03-31 03:03:00,
2013-03-30 23:08:00,66.1,53.4,30.21,SSE,153,0.0,0.0,64,0.00,,,0.00,VWS V14.01,2013-03-31 03:08:00,
2013-03-30 23:14:00,66.2,53.6,30.21,SSE,153,0.0,0.0,64,0.00,,,0.00,VWS V14.01,2013-03-31 03:14:00,
2013-03-30 23:19:00,65.7,53.4,30.21,SSE,153,0.0,0.0,64,0.00,,,0.00,VWS V14.01,2013-03-31 03:19:00,
2013-03-30 23:24:00,65.5,53.3,30.20,SSE,153,0.0,0.0,65,0.00,,,0.00,VWS V14.01,2013-03-31 03:24:00,
2013-03-30 23:29:00,65.4,53.2,30.20,SSE,153,0.0,0.0,65,0.00,,,0.00,VWS V14.01,2013-03-31 03:29:00,
2013-03-30 23:34:00,65.3,53.2,30.20,SSE,153,0.0,0.0,65,0.00,,,0.00,VWS V14.01,2013-03-31 03:34:00,
2013-03-30 23:39:00,65.1,53.2,30.20,SSE,153,0.0,0.0,65,0.00,,,0.00,VWS V14.01,2013-03-31 03:39:00,
2013-03-30 23:44:00,65.2,53.4,30.20,SSE,153,0.0,0.0,66,0.00,,,0.00,VWS V14.01,2013-03-31 03:44:00,
2013-03-30 23:49:00,65.1,53.5,30.20,SSE,153,0.0,0.0,66,0.00,,,0.00,VWS V14.01,2013-03-31 03:49:00,
2013-03-30 23:54:00,65.1,53.8,30.20,SSE,153,0.0,0.0,67,0.00,,,0.00,VWS V14.01,2013-03-31 03:54:00,
2013-03-30 23:59:00,65.0,54.3,30.20,SSE,153,0.0,0.0,68,0.00,,,0.00,VWS V14.01,2013-03-31 03:59:00,